DELTA 1 DEB, 12227

Orbit data source: Space-Track

DELTA 1 DEB, 12227 is space debris in SSO originally from a launch on Sun, 05 Mar 1978 UTC launched from the Air Force Western Test Range (AFWTR). Debris objects in space refer to the collection of defunct objects orbiting the Earth. Examples of debris include non-operational satellites, rocket bodies, and fragments generated from explosions, collisions, or faulty payload assembly.

Loading next visibility...
Identifier
12227, 1978-026BU
Orbit
SSO
Country
Flag of USUS
Related business
Manufacturer
Unknown
Mission
Spacecraft
Bus & Motor
Unknown
Mass
Unknown
Launch date (UTC)
1978-03-05 (48 years ago)
Launch vehicle
Unknown
Launch site
Air Force Western Test Range (AFWTR)
Object type
Payload
Rocket body
Debris
Shape & HBR
Unknown shape, 0.1 m
Radar Cross Section
Medium (>0.1 m² and <1 m²)

Expand to show TLE details & history
Last TLE update: 2 days ago

TLE from 2 days ago
0 DELTA 1 DEB
1 12227U 78026BU  26171.47707955  .00003395  00000-0  28606-3 0  9993
2 12227  98.7911  10.3312 0065558 192.4242 167.5364 14.97374858400398
Epoch: 2026-06-20T11:26Z
TLE epoch observation values (Epoch: 2026-06-20T11:26:59.673Z)
Latitude
0.00004°
Longitude
-70.10859°
Altitude
622.56 km
Speed
7.523 km/s
True Right ascension
00h 41m 19s
True Declination
0° 00' 00"
Sunlit
Object was in daylight at epoch
Visualization orbit readout
Latitude
Unknown
Longitude
Unknown
Altitude
Unknown
Speed
Unknown
Apparent Right ascension
Unknown
Apparent Declination
Unknown
Sunlit
N/A
Visualization observer readout
Local Sidereal Time
00:29:39
Azimuth
Unknown
Elevation
Unknown
Doppler factor
Unknown
Orbital elements
Apogee altitude
617.635 km
Perigee altitude
526.507 km
Semi-major axis
6,950.208 km
Eccentricity
0.00656
Inclination
98.7911°
RAAN
10.3312°
Arg. of periapsis
192.4242°
True anomaly
167.69724°
Mean anomaly
167.5364°
Eccentric anomaly
167.61695°
Mean motion
3.74582 °/min
Orbital period
96.11 mins
BSTAR
0.00028606
Loading maneuver chart data...
Computing Atmospheric mass density...

Documentation

Showing up to 5 results
|